Freeport, IL

9:39 PM CDT on September 20, 2017 (GMT -0500)
Albertus

Weather History for KFEP - September, 2013

Change the Weather History Date:

Friday, September 27, 2013

  Actual Average Record
Temperature  
Mean Temperature 64 °F -  
Max Temperature 81 °F 71 °F 83 °F (1974)
Min Temperature 47 °F 45 °F 30 °F (1991)
Degree Days  
Heating Degree Days 1    
Growing Degree Days 14 (Base 50)    
Moisture  
Dew Point 51 °F    
Average Humidity 68    
Maximum Humidity 94    
Minimum Humidity 27    
Precipitation  
Precipitation 0.00 in - - ()
Sea Level Pressure  
Sea Level Pressure 30.10 in    
Wind  
Wind Speed 5 mph (SE)    
Max Wind Speed 16 mph    
Max Gust Speed 21 mph    
Visibility 8 miles    
Events      
Averages and records for this station are not official NWS values.
T = Trace of Precipitation, MM = Missing Value Source: NWS Daily Summary

Daily Weather History Graph

Daily Weather History Graph

Search for Another Location

Airport or City:

Trip Planner

Search our weather history database for the weather conditions in past years. The results will help you decide how hot, cold, wet, or windy it might be!

Date:

Astronomy

Sep. 27, 2013 Rise Set
Actual Time 6:51 AM CDT 6:46 PM CDT
Civil Twilight 6:23 AM CDT 7:14 PM CDT
Nautical Twilight 5:50 AM CDT 7:46 PM CDT
Astronomical Twilight 5:17 AM CDT 8:19 PM CDT
Moon No Moon Rise 2:30 PM CDT (9/27)
Length of Visible Light 12h 50m
Length of Day
11h 55m
Last Quarter, 45% of the Moon is Illuminated
Sep 27
Last Quarter
Oct 4
New
Oct 11
First Quarter
Oct 18
Full
Oct 26
Last Quarter

Hourly Weather History & Observations

Time (CDT) Temp. Dew Point Humidity Pressure Visibility Wind Dir Wind Speed Gust Speed Precip Events Conditions
12:15 AM 54.0 °F 51.3 °F 91% 30.10 in 7.0 mi East 3.5 mph - N/A   Clear
12:35 AM 54.0 °F 51.8 °F 92% 30.10 in 7.0 mi Calm Calm - N/A   Clear
12:55 AM 54.0 °F 51.6 °F 92% 30.10 in 7.0 mi Calm Calm - N/A   Clear
1:15 AM 54.0 °F 51.8 °F 92% 30.10 in 7.0 mi East 3.5 mph - N/A   Clear
1:35 AM 54.0 °F 51.8 °F 92% 30.11 in 5.0 mi East 3.5 mph - N/A   Clear
1:55 AM 54.0 °F 51.8 °F 92% 30.11 in 5.0 mi Calm Calm - N/A   Clear
2:15 AM 54.0 °F 51.8 °F 92% 30.11 in 5.0 mi East 3.5 mph - N/A   Clear
2:35 AM 54.0 °F 51.8 °F 92% 30.11 in 5.0 mi Calm Calm - N/A   Clear
2:55 AM 54.0 °F 51.8 °F 92% 30.11 in 5.0 mi East 3.5 mph - N/A   Clear
3:15 AM 54.0 °F 51.8 °F 92% 30.11 in 5.0 mi ESE 3.5 mph - N/A   Clear
3:35 AM 54.0 °F 51.8 °F 92% 30.11 in 5.0 mi ESE 3.5 mph - N/A   Clear
3:55 AM 51.4 °F 49.3 °F 92% 30.12 in 4.0 mi Calm Calm - N/A   Clear
4:15 AM 54.0 °F 51.8 °F 92% 30.12 in 5.0 mi Calm Calm - N/A   Clear
4:35 AM 54.0 °F 51.8 °F 92% 30.12 in 5.0 mi ESE 3.5 mph - N/A   Clear
4:55 AM 54.0 °F 51.6 °F 92% 30.12 in 5.0 mi ESE 4.6 mph - N/A   Clear
5:15 AM 51.4 °F 49.1 °F 92% 30.12 in 5.0 mi ESE 4.6 mph - N/A   Clear
5:35 AM 48.6 °F 46.6 °F 93% 30.13 in 3.0 mi ESE 3.5 mph - N/A   Clear
5:55 AM 47.7 °F 45.5 °F 92% 30.14 in 3.0 mi Calm Calm - N/A   Clear
6:15 AM 51.3 °F 49.5 °F 94% 30.14 in 2.5 mi Calm Calm - N/A   Clear
6:35 AM 47.8 °F 46.2 °F 94% 30.15 in 0.8 mi ENE 3.5 mph - N/A   Mist
6:55 AM 47.5 °F 45.9 °F 94% 30.15 in 1.8 mi ESE 4.6 mph - N/A   Mist
7:15 AM 47.5 °F 45.9 °F 94% 30.15 in 2.0 mi ESE 4.6 mph - N/A   Clear
7:35 AM 48.2 °F 46.6 °F 94% 30.16 in 1.5 mi Calm Calm - N/A   Mist
7:55 AM 53.2 °F 51.6 °F 94% 30.15 in 2.0 mi ESE 4.6 mph - N/A   Clear
8:15 AM 56.5 °F 53.6 °F 90% 30.16 in 5.0 mi SE 3.5 mph - N/A   Clear
8:35 AM 59.0 °F 55.4 °F 88% 30.16 in 7.0 mi SE 4.6 mph - N/A   Clear
8:55 AM 60.3 °F 55.4 °F 84% 30.16 in 10.0 mi SE 4.6 mph - N/A   Clear
9:15 AM 63.9 °F 57.2 °F 79% 30.16 in 10.0 mi SE 4.6 mph - N/A   Clear
9:35 AM 66.6 °F 55.6 °F 68% 30.16 in 10.0 mi SSE 12.7 mph - N/A   Clear
9:55 AM 68.7 °F 55.9 °F 64% 30.15 in 10.0 mi SSE 10.4 mph - N/A   Clear
10:15 AM 71.8 °F 56.5 °F 58% 30.15 in 10.0 mi SSE 10.4 mph - N/A   Clear
10:35 AM 74.3 °F 55.4 °F 52% 30.16 in 10.0 mi South 11.5 mph - N/A   Clear
10:55 AM 74.3 °F 54.0 °F 49% 30.15 in 10.0 mi SSE 12.7 mph 17.3 mph N/A   Clear
11:15 AM 74.7 °F 52.9 °F 46% 30.15 in 10.0 mi SSE 12.7 mph - N/A   Clear
11:35 AM 79.0 °F 55.4 °F 44% 30.14 in 10.0 mi SSE 10.4 mph - N/A   Clear
11:55 AM 79.3 °F 55.8 °F 44% 30.14 in 10.0 mi SSE 11.5 mph - N/A   Clear
12:15 PM 79.3 °F 54.5 °F 42% 30.14 in 10.0 mi SE 9.2 mph 16.1 mph N/A   Clear
12:35 PM 79.3 °F 51.4 °F 38% 30.13 in 10.0 mi SSE 11.5 mph - N/A   Clear
12:55 PM 79.3 °F 49.5 °F 35% 30.13 in 10.0 mi SSE 11.5 mph - N/A   Clear
1:15 PM 79.3 °F 49.5 °F 35% 30.12 in 10.0 mi SE 8.1 mph - N/A   Clear
1:35 PM 81.0 °F 48.0 °F 31% 30.11 in 10.0 mi SE 11.5 mph 17.3 mph N/A   Clear
1:55 PM 81.9 °F 44.8 °F 27% 30.10 in 10.0 mi SSE 10.4 mph - N/A   Clear
2:15 PM 81.9 °F 45.0 °F 27% 30.09 in 10.0 mi SE 13.8 mph 19.6 mph N/A   Clear
2:35 PM 81.9 °F 47.7 °F 30% 30.09 in 10.0 mi SE 10.4 mph - N/A   Clear
2:55 PM 81.9 °F 47.3 °F 30% 30.08 in 10.0 mi SE 15.0 mph - N/A   Clear
3:15 PM 81.9 °F 46.8 °F 29% 30.07 in 10.0 mi SSE 16.1 mph 19.6 mph N/A   Clear
3:35 PM 81.9 °F 46.8 °F 29% 30.07 in 10.0 mi SE 10.4 mph 16.1 mph N/A   Clear
3:55 PM 81.9 °F 48.0 °F 31% 30.07 in 10.0 mi SE 15.0 mph 18.4 mph N/A   Clear
4:15 PM 81.9 °F 47.5 °F 30% 30.06 in 10.0 mi SSE 12.7 mph 17.3 mph N/A   Clear
4:35 PM 81.5 °F 46.8 °F 29% 30.06 in 10.0 mi SSE 13.8 mph 20.7 mph N/A   Clear
4:55 PM 80.4 °F 47.7 °F 32% 30.06 in 10.0 mi SE 11.5 mph - N/A   Clear
5:15 PM 79.3 °F 47.3 °F 32% 30.06 in 10.0 mi SSE 9.2 mph - N/A   Clear
5:35 PM 79.3 °F 48.7 °F 34% 30.05 in 10.0 mi SE 9.2 mph - N/A   Clear
5:55 PM 79.3 °F 48.9 °F 34% 30.05 in 10.0 mi SE 8.1 mph - N/A   Clear
6:15 PM 74.5 °F 50.5 °F 43% 30.05 in 10.0 mi SE 4.6 mph - N/A   Clear
6:35 PM 74.3 °F 54.1 °F 49% 30.06 in 10.0 mi SE 3.5 mph - N/A   Clear
6:55 PM 68.0 °F 52.5 °F 58% 30.06 in 10.0 mi SSE 3.5 mph - N/A   Clear
7:15 PM 64.4 °F 53.2 °F 67% 30.06 in 10.0 mi Calm Calm - N/A   Clear
7:35 PM 61.7 °F 53.1 °F 73% 30.06 in 10.0 mi SE 4.6 mph - N/A   Clear
7:55 PM 61.7 °F 53.8 °F 75% 30.06 in 10.0 mi East 5.8 mph - N/A   Clear
8:15 PM 60.3 °F 52.9 °F 77% 30.06 in 10.0 mi ESE 5.8 mph - N/A   Clear
8:35 PM 60.4 °F 52.3 °F 75% 30.07 in 10.0 mi ESE 4.6 mph - N/A   Clear
8:55 PM 59.9 °F 52.0 °F 75% 30.07 in 10.0 mi ESE 5.8 mph - N/A   Clear
9:15 PM 59.0 °F 51.6 °F 76% 30.07 in 10.0 mi ESE 3.5 mph - N/A   Clear
9:35 PM 59.0 °F 52.7 °F 80% 30.07 in 10.0 mi Calm Calm - N/A   Clear
9:55 PM 59.0 °F 52.0 °F 78% 30.07 in 10.0 mi East 3.5 mph - N/A   Clear
10:15 PM 59.0 °F 53.2 °F 81% 30.07 in 10.0 mi Calm Calm - N/A   Clear
10:35 PM 55.2 °F 50.9 °F 85% 30.07 in 10.0 mi East 5.8 mph - N/A   Clear
10:55 PM 56.5 °F 52.3 °F 86% 30.07 in 10.0 mi East 3.5 mph - N/A   Clear
11:15 PM 55.4 °F 51.1 °F 85% 30.07 in 10.0 mi ESE 3.5 mph - N/A   Clear
11:35 PM 54.5 °F 50.9 °F 88% 30.07 in 10.0 mi East 3.5 mph - N/A   Clear
11:55 PM 55.9 °F 52.2 °F 87% 30.07 in 10.0 mi Calm Calm - N/A   Clear